Weather History for Marianna, FL

Change the Weather History Date:

Saturday, February 9, 2013

  Actual Average Record
Temperature  
Mean Temperature 12 °C 12 °C  
Max Temperature 19 °C 18 °C 26 °C (2001)
Min Temperature 5 °C 6 °C 0 °C (1998)
Degree Days  
Heating Degree Days 11    
Month to date heating degree days 90  
Since 1 July heating degree days 816  
Cooling Degree Days 0    
Month to date cooling degree days 0  
Year to date cooling degree days 53  
Growing Degree Days 3 (Base 50)    
Moisture  
Dew Point 5 °C    
Average Humidity 64    
Maximum Humidity 93    
Minimum Humidity 34    
Precipitation  
Precipitation 0.00 mm 4.57 mm 0.15 mm (2003)
Month to date precipitation 2.28 1.53  
Year to date precipitation 3.24 6.57  
Sea Level Pressure  
Sea Level Pressure 1023 hPa    
Wind  
Wind Speed 7 km/h (NE)    
Max Wind Speed 21 km/h    
Max Gust Speed 26 km/h    
Visibility 16 kilometers    
Events      
T = Trace of Precipitation, MM = Missing Value Source: NWS Daily Summary

Daily Weather History Graph

Daily Weather History Graph

Search for Another Location

Airport:

Trip Planner

Search our weather history database for the weather conditions in past years. The results will help you decide how hot, cold, wet, or windy it might be!

Date:

Astronomy

Feb. 09, 2013 Rise Set
Actual Time 6:26 AM CST 5:23 PM CST
Civil Twilight 6:01 AM CST 5:48 PM CST
Nautical Twilight 5:33 AM CST 6:17 PM CST
Astronomical Twilight 5:04 AM CST 6:45 PM CST
Moon 5:38 AM CST (2/9) 5:03 PM CST (2/9)
Length of Visible Light 11h 47m
Length of Day
10h 57m
Waning Crescent, 0% of the Moon is Illuminated
Feb 9
Waning Crescent
Feb 10
New
Feb 17
First Quarter
Feb 25
Full
Mar 4
Last Quarter

Hourly Weather History & Observations

Time (CST) Temp. Windchill Dew Point Humidity Pressure Visibility Wind Dir Wind Speed Gust Speed Precip Events Conditions
12:44 AM 12.0 °C - 9.0 °C 82% 1020.9 hPa 16.1 km North 11.1 km/h / 3.1 m/s - N/A   Partly Cloudy
12:53 AM 11.7 °C - 9.4 °C 86% 1021.1 hPa 16.1 km North 9.3 km/h / 2.6 m/s - N/A   Partly Cloudy
1:53 AM 10.6 °C - 8.3 °C 86% 1021.6 hPa 16.1 km North 11.1 km/h / 3.1 m/s - N/A   Clear
2:53 AM 8.9 °C - 6.7 °C 86% 1021.7 hPa 16.1 km North 13.0 km/h / 3.6 m/s - N/A   Clear
3:53 AM 7.8 °C 6.2 °C 6.1 °C 89% 1021.9 hPa 16.1 km NNE 9.3 km/h / 2.6 m/s - N/A   Clear
4:53 AM 6.7 °C 5.3 °C 5.0 °C 89% 1022.9 hPa 16.1 km North 7.4 km/h / 2.1 m/s - N/A   Clear
5:53 AM 5.6 °C 4.0 °C 4.4 °C 92% 1023.7 hPa 16.1 km North 7.4 km/h / 2.1 m/s - N/A   Clear
6:53 AM 5.6 °C 3.6 °C 3.9 °C 89% 1024.2 hPa 16.1 km NNE 9.3 km/h / 2.6 m/s - N/A   Clear
7:53 AM 6.7 °C 3.6 °C 3.9 °C 82% 1025.0 hPa 16.1 km NE 16.7 km/h / 4.6 m/s - N/A   Clear
8:53 AM 8.3 °C - 4.4 °C 77% 1025.0 hPa 16.1 km ENE 13.0 km/h / 3.6 m/s - N/A   Clear
9:53 AM 11.1 °C - 3.9 °C 61% 1025.1 hPa 16.1 km ENE 16.7 km/h / 4.6 m/s - N/A   Clear
10:53 AM 12.8 °C - 3.3 °C 53% 1024.4 hPa 16.1 km East 9.3 km/h / 2.6 m/s - N/A   Clear
11:53 AM 15.0 °C - 3.3 °C 46% 1024.0 hPa 16.1 km ENE 11.1 km/h / 3.1 m/s - N/A   Clear
12:53 PM 16.1 °C - 2.2 °C 39% 1022.7 hPa 16.1 km ENE 5.6 km/h / 1.5 m/s - N/A   Clear
1:53 PM 17.2 °C - 2.2 °C 37% 1022.4 hPa 16.1 km ENE 7.4 km/h / 2.1 m/s - N/A   Clear
2:53 PM 18.3 °C - 1.7 °C 33% 1021.7 hPa 16.1 km East 13.0 km/h / 3.6 m/s - N/A   Clear
3:53 PM 18.3 °C - 2.2 °C 34% 1021.9 hPa 16.1 km ESE 7.4 km/h / 2.1 m/s - N/A   Clear
4:53 PM 17.8 °C - 2.8 °C 37% 1022.2 hPa 16.1 km East 7.4 km/h / 2.1 m/s - N/A   Clear
5:53 PM 13.9 °C - 6.7 °C 62% 1022.2 hPa 16.1 km Calm Calm - N/A   Clear
6:53 PM 12.2 °C - 7.2 °C 72% 1022.2 hPa 16.1 km Calm Calm - N/A   Clear
7:53 PM 8.3 °C - 6.1 °C 86% 1022.5 hPa 16.1 km Calm Calm - N/A   Clear
8:53 PM 8.9 °C - 6.1 °C 83% 1022.8 hPa 16.1 km Calm Calm - N/A   Clear
9:53 PM 7.2 °C - 5.6 °C 90% 1022.5 hPa 16.1 km Calm Calm - N/A   Clear
10:53 PM 8.3 °C - 6.7 °C 90% 1022.7 hPa 12.9 km Calm Calm - N/A   Clear
11:53 PM 10.0 °C - 5.6 °C 74% 1022.6 hPa 16.1 km East 5.6 km/h / 1.5 m/s - N/A   Clear